Station 46059 (LLNR 382) - WEST CALIFORNIA - 357NM West of San Francisco, CA Image indicating link to RSS feed of recent meteorological observations for station 46059


Conditions at 46059 as of
(1:30 pm AKDT)
2130 GMT on 04/17/2024:
     

Click on the graph icon in the table below to see a time series plot of the last five days of that observation.

5-day plot - Wind Direction Wind Direction (WDIR): NE ( 40 deg true )
5-day plot - Wind Speed Wind Speed (WSPD): 15.5 kts
5-day plot - Wind Gust Wind Gust (GST): 21.4 kts
5-day plot - Atmospheric Pressure Atmospheric Pressure (PRES):30.31 in
5-day plot - Air Temperature Air Temperature (ATMP): 52.9 °F
5-day plot - Water Temperature Water Temperature (WTMP): 55.9 °F
5-day plot - Dew Point Dew Point (DEWP): 47.5 °F
5-day plot - Wind Chill Wind Chill (CHILL): 47.8 °F
5-day plot - Wind Speed at 10 Meters Wind Speed at 10 meters (WSPD10M): 17.5 kts
5-day plot - Wind Speed at 20 Meters Wind Speed at 20 meters (WSPD20M): 19.4 kts
5-day plot -  Wind Speed, Wind Gust and Atmospheric Pressure Combined plot of Wind Speed, Gust, and Air Pressure
Supplemental Measurements
Highest 1-minute Wind Speed
Time (AKDT)5-day plot - 1-Minute Wind Speed WSPD 5-day plot - 1-Minute Wind Direction WDIR
1:24 pm 17.5 kts-
Previous observations
TIME
(AKDT)
5-day plot - Wind Direction
WDIR
 
5-day plot - Wind Speed
WSPD
kts
5-day plot - Wind Gust
GST
kts
5-day plot - Wave Height
WVHT
ft
5-day plot - Dominant Wave Period
DPD
sec
5-day plot - Average Wave Period
APD
sec
5-day plot - Mean Wave Direction
MWD
 
5-day plot - Atmospheric Pressure
PRES
in
5-day plot - Pressure Tendency
PTDY
in
5-day plot - Air Temperature
ATMP
°F
5-day plot - Water Temperature
WTMP
°F
5-day plot - Dew Point
DEWP
°F
5-day plot - Salinity
SAL
psu
5-day plot - Visibility
VIS
nmi
5-day plot - Tide (above MLLW)
TIDE
ft
2024-04-17 01:20 pm NE 15.5 21.4----30.31- 52.9 55.9 47.1---
2024-04-17 01:10 pm NE 17.5 21.4----30.31- 52.7 55.9 46.8---
2024-04-17 01:00 pm NE 15.5 21.4----30.31-0.06 52.9 55.9 47.5---
2024-04-17 12:50 pm NE 15.5 19.4 6.6 85.8 NE30.32- 52.9- 47.3---
2024-04-17 12:40 pm NE 17.5 21.4 6.6-5.8 NE30.32- 52.9 55.9 47.1---
2024-04-17 12:30 pm NE 17.5 23.3----30.32- 52.7 55.9 46.9---
2024-04-17 12:20 pm NE 17.5 21.4----30.32- 52.7 55.9 46.9---
2024-04-17 12:10 pm NE 17.5 21.4----30.32- 52.7 55.9 47.1---
2024-04-17 12:00 pm NE 15.5 19.4----30.33-0.02 52.9 55.9 47.3---
2024-04-17 11:50 amNNE 17.5 23.3 7.9 86.3 NE30.33- 52.5- 46.9---
2024-04-17 11:40 am NE 17.5 21.4 7.9-6.3 NE30.33- 52.7 55.9 47.1---
2024-04-17 11:30 am NE 17.5 23.3----30.34- 52.5 55.9 46.8---
2024-04-17 11:20 amNNE 17.5 23.3----30.34- 52.7 55.9 46.9---
2024-04-17 11:10 amNNE 19.4 23.3----30.34- 52.7 55.8 46.9---
2024-04-17 11:00 amNNE 17.5 21.4----30.34-0.01 52.7 55.8 47.1---
2024-04-17 10:50 amNNE 17.5 21.4 7.9 176.5 S30.34- 52.5- 46.8---
2024-04-17 10:40 amNNE 17.5 21.4 7.9-6.5 S30.35- 52.7 55.8 47.1---
2024-04-17 10:30 amNNE 17.5 21.4----30.35- 52.7 55.8 46.9---
2024-04-17 10:20 amNNE 17.5 21.4----30.36- 52.5 55.8 46.6---
2024-04-17 10:10 amNNE 17.5 21.4----30.36- 52.5 55.8 46.8---
2024-04-17 10:00 amNNE 15.5 21.4----30.36+0.02 52.7 55.8 47.1---
2024-04-17 09:50 amNNE 17.5 23.3 7.9 86.3 NE30.36- 52.5- 46.9---
2024-04-17 09:40 am NE 17.5 21.4----30.36- 52.7 55.8 47.1---
2024-04-17 09:30 am NE 17.5 21.4----30.36- 52.7 55.8 47.1---
2024-04-17 09:20 amNNE 17.5 21.4----30.36- 52.7 55.8 47.1---
2024-04-17 09:10 amNNE 17.5 21.4----30.36- 52.7 55.8 47.3---
2024-04-17 09:00 amNNE 15.5 21.4----30.36+0.01 52.5 55.8 47.1---
2024-04-17 08:50 amNNE 17.5 21.4 7.9 86.5 NE30.35- 52.5- 47.1---
2024-04-17 08:40 am NE 17.5 21.4----30.35- 52.7 55.8 47.7---
2024-04-17 08:30 am NE 17.5 23.3----30.35- 52.5 55.8 47.3---
2024-04-17 08:20 am NE 17.5 21.4----30.35- 52.7 55.8 47.5---
2024-04-17 08:10 am NE 17.5 21.4----30.35- 52.5 55.8 47.1---
2024-04-17 08:00 am NE 17.5 21.4----30.35+0.00 52.5 55.8 47.1---
2024-04-17 07:50 amNNE 17.5 21.4 6.9 176.0SSE30.35- 52.5 55.8 47.5---
2024-04-17 07:40 amNNE 15.5 19.4----30.35- 52.5 55.8 47.3---
2024-04-17 07:30 amNNE 15.5 21.4----30.35- 52.3 55.8 47.1---
2024-04-17 07:20 amNNE 15.5 25.3----30.35- 52.5 55.8 47.7---
2024-04-17 07:10 amNNE 15.5 19.4----30.35- 52.3 55.8 47.5---
2024-04-17 07:00 am NE 15.5 21.4----30.35+0.01 52.3 55.8 47.7---
2024-04-17 06:50 amNNE 15.5 21.4 6.9 86.2 NE30.34- 52.3- 47.7---
2024-04-17 06:40 amNNE 13.6 19.4 6.9-6.2 NE30.34- 52.5 55.8 47.8---
2024-04-17 06:30 amNNE 15.5 17.5----30.35- 52.3 55.8 47.5---
2024-04-17 06:20 am NE 15.5 19.4----30.34- 52.3 55.8 47.3---
2024-04-17 06:10 amNNE 13.6 17.5----30.34- 52.5 55.8 47.8---
2024-04-17 06:00 amNNE 15.5 19.4----30.34+0.00 52.3 55.8 47.5---
2024-04-17 05:50 am NE 15.5 21.4 7.5 96.5NNE30.34- 52.5 55.8 47.7---
2024-04-17 05:40 amNNE 15.5 19.4 7.5-6.5NNE30.34- 52.5 55.8 47.8---
2024-04-17 05:30 amNNE 15.5 17.5----30.34- 52.5 55.8 47.8---
2024-04-17 05:20 amNNE 13.6 17.5----30.34- 52.3 55.8 47.3---
2024-04-17 05:10 amNNE 15.5 19.4----30.34- 52.3 55.8 47.1---
2024-04-17 05:00 amNNE 13.6 19.4----30.35+0.00 52.5 55.8 47.5---
2024-04-17 04:50 amNNE 15.5 21.4 7.5 86.2 NE30.34- 52.5- 47.7---
2024-04-17 04:40 am NE 17.5 21.4 7.5-6.2 NE30.33- 52.5 55.8 47.5---
2024-04-17 04:30 am NE 17.5 23.3----30.33- 52.5 55.8 47.8---
2024-04-17 04:20 am NE 17.5 19.4----30.34- 52.5 55.8 47.7---
2024-04-17 04:10 am NE 15.5 19.4----30.34- 52.5 55.8 47.5---
2024-04-17 04:00 amNNE 15.5 19.4----30.35-0.03 52.5 55.8 47.5---
2024-04-17 03:50 am NE 15.5 19.4 7.2 86.2NNE30.35- 52.5- 47.7---
2024-04-17 03:40 am NE 15.5 19.4----30.35- 52.5 55.8 47.7---
2024-04-17 03:30 am NE 15.5 21.4----30.35- 52.5- 47.7---
2024-04-17 03:20 am NE 15.5 19.4----30.35- 52.5 55.8 47.7---
2024-04-17 03:10 am NE 17.5 21.4----30.34- 52.5 55.8 47.8---
2024-04-17 03:00 am NE 17.5 21.4----30.35-0.04 52.5 55.8 47.8---
2024-04-17 02:50 am NE 17.5 21.4 6.9 86.1 NE30.35- 52.7- 48.0---
2024-04-17 02:40 am NE 17.5 23.3 6.9-6.1 NE30.35- 52.5 55.8 47.8---
2024-04-17 02:30 amNNE 17.5 21.4----30.34- 52.3 55.8 47.7---
2024-04-17 02:20 am NE 17.5 23.3----30.35- 52.7 55.8 48.2---
2024-04-17 02:10 am NE 17.5 23.3----30.35- 52.5 55.8 47.8---
2024-04-17 02:00 am NE 17.5 21.4----30.35-0.05 52.7 55.8 48.0---
2024-04-17 01:50 am NE 17.5 19.4 7.2 86.2 NE30.35- 52.5- 47.7---
2024-04-17 01:40 am NE 15.5 21.4 7.2-6.2 NE30.36- 52.5 55.8 47.7---
2024-04-17 01:30 am NE 17.5 19.4----30.36- 52.7 55.8 47.8---
2024-04-17 01:20 am NE 17.5 21.4----30.37- 52.7 55.8 47.8---
2024-04-17 01:10 am NE 17.5 21.4----30.37- 52.5 55.8 47.5---
2024-04-17 01:00 am NE 17.5 21.4----30.37-0.03 52.7 55.8 47.7---
2024-04-17 12:50 am NE 17.5 23.3 7.2 96.1 NE30.37- 52.7- 47.8---
2024-04-17 12:40 am NE 15.5 19.4----30.37- 52.7 55.8 48.0---
2024-04-17 12:30 am NE 15.5 21.4 7.2-6.1 NE30.38- 52.7 55.8 47.8---
2024-04-17 12:20 amNNE 15.5 21.4----30.38- 52.9 55.8 48.0---
2024-04-17 12:10 am NE 15.5 19.4----30.38- 52.7 55.8 47.8---
2024-04-17 12:00 amNNE 15.5 21.4----30.39+0.00 52.9 55.8 48.0---
2024-04-16 11:50 pmNNE 15.5 19.4 7.9 86.5 NE30.39- 52.9- 48.0---
2024-04-16 11:40 pm NE 15.5 19.4 7.9-6.5 NE30.39- 52.9 55.8 47.8---
2024-04-16 11:30 pmNNE 15.5 21.4----30.39- 52.9 55.8 47.8---
2024-04-16 11:20 pmNNE 15.5 19.4----30.39- 52.9 55.8 47.8---
2024-04-16 11:10 pm NE 15.5 19.4----30.40- 52.9 55.8 47.7---
2024-04-16 11:00 pmNNE 15.5 21.4----30.40+0.01 53.1 55.8 47.8---
2024-04-16 10:50 pm NE 15.5 19.4 7.5 96.4 NE30.40- 53.1- 48.0---
2024-04-16 10:40 pmNNE 15.5 19.4 7.5-6.4 NE30.40- 53.2 55.8 48.2---
2024-04-16 10:30 pm NE 15.5 19.4----30.40- 53.1 55.8 47.7---
2024-04-16 10:20 pm NE 15.5 19.4----30.39- 53.1 55.9 47.7---
2024-04-16 10:10 pm NE 15.5 19.4----30.39- 53.1 55.9 47.7---
2024-04-16 10:00 pm NE 15.5 21.4----30.39+0.04 53.1 55.9 47.7---
2024-04-16 09:50 pm NE 15.5 21.4 7.9 76.1 NE30.39- 53.1- 47.8---
2024-04-16 09:40 pm NE 17.5 21.4----30.39- 53.1 55.9 47.7---
2024-04-16 09:30 pm NE 15.5 19.4----30.39- 53.1 55.9 47.7---
2024-04-16 09:20 pm NE 15.5 21.4----30.39- 53.1 55.9 47.8---
2024-04-16 09:10 pm NE 15.5 21.4----30.39- 53.1 55.9 47.7---
2024-04-16 09:00 pm NE 17.5 21.4----30.39+0.01 52.9 55.9 47.3---
2024-04-16 08:50 pm NE 17.5 23.3 8.2 86.4 NE30.39- 52.9- 47.7---
2024-04-16 08:40 pm NE 17.5 23.3 8.2-6.4 NE30.38- 52.7 55.9 47.5---
2024-04-16 08:30 pmNNE 15.5 19.4----30.39- 52.9 55.9 47.7---
2024-04-16 08:20 pm NE 15.5 19.4----30.39- 52.7 55.9 47.3---
2024-04-16 08:10 pm NE 17.5 21.4----30.38- 52.7 55.9 47.5---
2024-04-16 08:00 pm NE 15.5 21.4----30.38+0.00 52.7 55.9 47.7---
2024-04-16 07:50 pm NE 15.5 21.4 7.9 86.3 NE30.37- 52.7- 47.5---
2024-04-16 07:40 pm NE 17.5 23.3----30.37- 52.5 55.9 47.3---
2024-04-16 07:30 pm NE 17.5 21.4----30.37- 52.5 55.9 47.7---
2024-04-16 07:20 pm NE 17.5 21.4----30.37- 52.7 55.9 47.7---
2024-04-16 07:10 pm NE 17.5 23.3----30.36- 52.7 55.9 47.7---
2024-04-16 07:00 pm NE 17.5 21.4----30.36-0.03 52.7 55.9 47.5---
2024-04-16 06:50 pm NE 17.5 21.4 7.2 86.1 NE30.36- 52.7- 47.7---
2024-04-16 06:40 pm NE 17.5 21.4 7.2-6.1 NE30.37- 52.9 55.9 47.8---
2024-04-16 06:30 pm NE 17.5 21.4----30.37- 52.7 55.9 47.3---
2024-04-16 06:20 pm NE 15.5 19.4----30.37- 52.9 55.9 47.8---
2024-04-16 06:10 pm NE 17.5 21.4----30.37- 52.7 55.9 47.3---
2024-04-16 06:00 pm NE 17.5 21.4----30.37-0.03 52.7 55.9 47.3---
2024-04-16 05:50 pm NE 17.5 21.4 7.2 86.3 NE30.37- 52.7- 47.1---
2024-04-16 05:40 pm NE 17.5 19.4 7.2-6.3 NE30.38- 52.7 55.9 46.9---
2024-04-16 05:30 pm NE 17.5 21.4----30.38- 52.7 55.9 47.1---
2024-04-16 05:20 pm NE 15.5 21.4----30.38- 52.7 55.9 47.1---
2024-04-16 05:10 pmNNE 17.5 21.4----30.38- 52.7 55.9 46.9---
2024-04-16 05:00 pmNNE 17.5 23.3----30.38-0.03 52.5 55.9 46.8---
2024-04-16 04:50 pmNNE 15.5 19.4 7.2-6.1NNE30.38-- 55.9----
2024-04-16 04:40 pmNNE 17.5 21.4----30.38- 52.7 55.9 47.1---
2024-04-16 04:30 pmNNE 17.5 21.4----30.38- 52.7 55.9 46.9---
2024-04-16 04:20 pmNNE 17.5 23.3----30.38- 52.7 55.9 46.9---
2024-04-16 04:10 pmNNE 17.5 21.4----30.39- 52.7 55.9 46.9---
2024-04-16 04:00 pmNNE 17.5 21.4----30.39-0.03 52.7 55.9 46.9---
2024-04-16 03:50 pm NE 17.5 21.4 6.9 86.2NNE30.38- 52.7- 46.9---
2024-04-16 03:40 pmNNE 17.5 21.4----30.39- 52.7 56.1 46.9---
2024-04-16 03:20 pmNNE 17.5 21.4----30.40- 52.5 56.1 46.8---
2024-04-16 03:10 pmNNE 15.5 19.4----30.40- 52.7 56.1 46.9---
2024-04-16 03:00 pmNNE 15.5 17.5----30.40-0.03 52.7 56.1 46.6---
2024-04-16 02:50 pm NE 15.5 19.4 6.9 76.0NNE30.41- 52.5- 46.4---
2024-04-16 02:40 pmNNE 15.5 19.4 6.9-6.0NNE30.41- 52.7 55.9 46.6---
2024-04-16 02:30 pmNNE 15.5 19.4----30.41- 52.7 56.1 46.4---
2024-04-16 02:20 pm NE 15.5 17.5----30.41- 52.7 56.1 46.2---
2024-04-16 02:10 pm NE 15.5 19.4----30.41- 52.7 55.9 46.2---
2024-04-16 02:00 pm NE 17.5 21.4----30.41-0.03 52.7 56.1 46.2---
2024-04-16 01:50 pm NE 15.5 19.4 7.2 76.3NNE30.41- 52.9- 46.4---
2024-04-16 01:40 pm NE 15.5 19.4 7.2-6.3NNE30.42- 52.7 55.9 46.0---
2024-04-16 01:30 pmNNE 15.5 19.4----30.42- 52.7 55.9 46.4---
2024-04-16 01:20 pmNNE 15.5 19.4----30.42- 52.9 55.9 46.6---
2024-04-16 01:10 pm NE 15.5 17.5----30.42- 52.7 55.9 46.0---
2024-04-16 01:00 pm NE 15.5 19.4----30.42-0.02 52.5 55.9 45.9---
2024-04-16 12:50 pmNNE 15.5 19.4 6.9 76.1 NE30.42- 52.5- 46.0---

Detailed Wave Summary
for 46059 as of (12:40 pm AKDT)
2040 GMT on 04/17/2024:

These wave data are displayed in rounded times.

     

Click on the graph icon in the table below to see a time series plot of the last five days of that observation.

5-day plot - Significant Wave Height Significant Wave Height (WVHT): 6.6 ft
5-day plot - Swell Height Swell Height (SwH): 3.9 ft
5-day plot - Swell Period Swell Period (SwP): 8.3 sec
5-day plot - Swell Direction Swell Direction (SwD): NE
5-day plot - Wind Wave Height Wind Wave Height (WWH): 5.2 ft
5-day plot - Wind Wave Period Wind Wave Period (WWP): 6.2 sec
5-day plot - Wind Wave Direction Wind Wave Direction (WWD): NE
5-day plot - Wave Steepness Wave Steepness (STEEPNESS): AVERAGE
5-day plot - Average Wave Period Average Wave Period (APD): 5.8 sec
Previous observations
TIME
(AKDT)
5-day plot - Wave Height
WVHT
ft
5-day plot - Swell Height
SwH
ft
5-day plot - Swell Period
SwP
sec
5-day plot - Swell Direction
SwD
 
5-day plot - Wind Wave Height
WWH
ft
5-day plot - Wind Wave Period
WWP
sec
5-day plot - Wind Wave Direction
WWD
 
5-day plot - Wave Steepness
STEEPNESS
 
5-day plot - Average Wave Period
APD
sec
2024-04-17 11:40 am 7.9 4.9 8.3 NE 6.2 7.1 NE STEEP 6.3
2024-04-17 10:40 am 7.9 5.2 17.4 S 5.9 7.7 NE AVERAGE 6.5
2024-04-17 09:40 am 7.9 5.2 8.3 NE 5.9 4.8 NE STEEP 6.3
2024-04-17 08:40 am 7.9 5.2 8.3 NE 5.6 6.7 NE STEEP 6.5
2024-04-17 07:40 am 6.9 4.6 17.4SSE 5.2 7.1 NE AVERAGE 6.0
2024-04-17 06:40 am 6.9 5.2 8.3 NE 4.6 6.7 NE AVERAGE 6.2
2024-04-17 05:40 am 7.5 6.2 9.1NNE 4.3 5.6 NE AVERAGE 6.5
2024-04-17 04:40 am 7.5 4.6 8.3 NE 5.9 5.0 NE STEEP 6.2
2024-04-17 03:40 am 7.2 5.2 8.3NNE 4.9 7.1 NE STEEP 6.2
2024-04-17 02:40 am 6.9 4.3 10.0NNE 5.6 7.7 NE STEEP 6.1
2024-04-17 01:40 am 7.2 4.9 8.3 NE 5.6 7.1 NE STEEP 6.2
2024-04-17 12:40 am 7.2 4.9 9.1 NE 5.2 7.1 NE AVERAGE 6.1
2024-04-16 11:40 pm 7.9 6.6 8.3 NE 4.6 5.9 NE STEEP 6.5
2024-04-16 10:40 pm 7.5 5.9 9.1 NE 4.9 6.7 NE AVERAGE 6.4
2024-04-16 09:40 pm 7.9 4.9 9.1 NE 6.2 7.1 NE STEEP 6.1
2024-04-16 08:40 pm 8.2 5.6 8.3 NE 6.2 6.7 NE STEEP 6.4
2024-04-16 07:40 pm 7.9 5.2 12.9 N 5.9 7.7 NE STEEP 6.3
2024-04-16 06:40 pm 7.2 4.6 9.1 NE 5.2 7.7 NE STEEP 6.1
2024-04-16 05:40 pm 7.2 5.9 8.3 NE 4.6 5.6 NE STEEP 6.3
2024-04-16 04:40 pm 7.2 4.6 12.9 NW 5.6 7.7 NNE STEEP 6.1
2024-04-16 03:40 pm 6.9 5.2 8.3NNE 4.6 6.7 NNE AVERAGE 6.2
2024-04-16 02:40 pm 6.9 4.9 7.1NNE 4.6 5.6 NNE STEEP 6.0
2024-04-16 01:40 pm 7.2 4.9 8.3NNE 5.2 7.1 NNE STEEP 6.3

Plot of wave energy versus frequency (and period)